Weather History for Cortez, CO

Change the Weather History Date:

Saturday, March 2, 2013

  Actual Average Record
Temperature  
Mean Temperature 43 °F 36 °F  
Max Temperature 60 °F 50 °F 68 °F (2009)
Min Temperature 25 °F 21 °F 0 °F (2002)
Degree Days  
Heating Degree Days 22 29  
Month to date heating degree days 51 59  
Since 1 July heating degree days 4917 4789  
Cooling Degree Days 0 0  
Month to date cooling degree days 0 0  
Year to date cooling degree days 0 0  
Moisture  
Dew Point 24 °F    
Average Humidity 57    
Maximum Humidity 88    
Minimum Humidity 26    
Precipitation  
Precipitation 0.00 in 0.04 in 0.21 in (2012)
Month to date precipitation 0.00 0.09  
Year to date precipitation 2.21 1.98  
Sea Level Pressure  
Sea Level Pressure 30.31 in    
Wind  
Wind Speed 7 mph (NE)    
Max Wind Speed 14 mph    
Max Gust Speed 18 mph    
Visibility 10 miles    
Events      
T = Trace of Precipitation, MM = Missing Value Source: NWS Daily Summary

Daily Weather History Graph

Daily Weather History Graph

Search for Another Location

Airport:

Trip Planner

Search our weather history database for the weather conditions in past years. The results will help you decide how hot, cold, wet, or windy it might be!

Date:

Astronomy

Mar. 02, 2013 Rise Set
Actual Time 6:43 AM MST 6:09 PM MST
Civil Twilight 6:17 AM MST 6:35 PM MST
Nautical Twilight 5:47 AM MST 7:06 PM MST
Astronomical Twilight 5:17 AM MST 7:36 PM MST
Moon 11:44 PM MST (3/2) 9:21 AM MST (3/2)
Length of Visible Light 12h 18m
Length of Day
11h 25m
Waning Gibbous, 73% of the Moon is Illuminated
Mar 2
Waning Gibbous
Mar 4
Last Quarter
Mar 11
New
Mar 19
First Quarter
Mar 27
Full

Hourly Weather History & Observations

Time (MST) Temp. Windchill Dew Point Humidity Pressure Visibility Wind Dir Wind Speed Gust Speed Precip Events Conditions
12:53 AM 28.9 °F 21.9 °F 21.9 °F 75% 30.38 in 10.0 mi NE 6.9 mph - N/A   Clear
2:53 AM 30.9 °F 22.8 °F 21.9 °F 69% 30.36 in 10.0 mi East 9.2 mph - N/A   Clear
3:53 AM 28.9 °F 21.1 °F 21.9 °F 75% 30.37 in 10.0 mi ENE 8.1 mph - N/A   Clear
5:53 AM 25.0 °F 17.1 °F 21.0 °F 85% 30.43 in 10.0 mi ENE 6.9 mph - N/A   Clear
6:53 AM 25.0 °F 16.3 °F 19.9 °F 81% 30.45 in 10.0 mi NE 8.1 mph - N/A   Clear
7:53 AM 30.9 °F 23.5 °F 21.9 °F 69% 30.45 in 10.0 mi ENE 8.1 mph - N/A   Clear
8:53 AM 39.0 °F 36.8 °F 24.1 °F 55% 30.43 in 10.0 mi NE 3.5 mph - N/A   Clear
9:53 AM 45.0 °F 43.5 °F 23.0 °F 42% 30.40 in 10.0 mi ESE 3.5 mph - N/A   Clear
10:53 AM 48.9 °F - 24.1 °F 38% 30.37 in 10.0 mi Calm Calm - N/A   Clear
11:53 AM 53.1 °F - 26.1 °F 35% 30.34 in 10.0 mi SSW 8.1 mph - N/A   Clear
12:53 PM 55.9 °F - 25.0 °F 30% 30.30 in 10.0 mi West 5.8 mph - N/A   Clear
1:53 PM 57.9 °F - 26.1 °F 30% 30.26 in 10.0 mi West 6.9 mph - N/A   Clear
2:53 PM 59.0 °F - 25.0 °F 27% 30.23 in 10.0 mi West 12.7 mph - N/A   Clear
3:53 PM 57.9 °F - 25.0 °F 28% 30.21 in 10.0 mi West 11.5 mph 17.3 mph N/A   Clear
4:53 PM 57.0 °F - 25.0 °F 29% 30.22 in 10.0 mi WNW 12.7 mph - N/A   Clear
6:53 PM 41.0 °F 35.8 °F 27.0 °F 57% 30.28 in 10.0 mi ENE 8.1 mph - N/A   Clear
7:53 PM 35.1 °F 26.9 °F 26.1 °F 70% 30.27 in 10.0 mi ENE 11.5 mph - N/A   Clear
8:53 PM 34.0 °F 26.6 °F 26.1 °F 73% 30.25 in 10.0 mi ENE 9.2 mph - N/A   Clear
9:53 PM 32.0 °F 28.7 °F 25.0 °F 75% 30.24 in 10.0 mi East 3.5 mph - N/A   Clear
10:53 PM 33.1 °F 27.7 °F 26.1 °F 75% 30.20 in 10.0 mi East 5.8 mph - N/A   Clear
11:53 PM 32.0 °F 27.5 °F 25.0 °F 75% 30.17 in 10.0 mi NE 4.6 mph - N/A   Clear